Nenana, AK

9:58 AM AKDT on October 23, 2017 (GMT -0800)
Nenana Municipal

Weather History for PANN - August, 2014

Change the Weather History Date:

Thursday, August 21, 2014

  Actual Average Record
Temperature  
Mean Temperature 62 °F -  
Max Temperature 75 °F 62 °F 78 °F (1979)
Min Temperature 46 °F 44 °F 41 °F (2010)
Degree Days  
Heating Degree Days 4    
Growing Degree Days 12 (Base 50)    
Moisture  
Dew Point 46 °F    
Average Humidity 80    
Maximum Humidity 100    
Minimum Humidity 43    
Precipitation  
Precipitation 0.00 in - - ()
Sea Level Pressure  
Sea Level Pressure 30.19 in    
Wind  
Wind Speed 1 mph (NNW)    
Max Wind Speed 7 mph    
Max Gust Speed -    
Visibility 7 miles    
Events Fog    
Averages and records for this station are not official NWS values.
T = Trace of Precipitation, MM = Missing Value Source: NWS Daily Summary

Daily Weather History Graph

Daily Weather History Graph

Search for Another Location

Airport or City:

Trip Planner

Search our weather history database for the weather conditions in past years. The results will help you decide how hot, cold, wet, or windy it might be!

Date:

Astronomy

Aug. 21, 2014 Rise Set
Actual Time 6:04 AM AKDT 9:52 PM AKDT
Civil Twilight 5:02 AM AKDT 10:52 PM AKDT
Nautical Twilight 3:16 AM AKDT 12:33 AM AKDT
Astronomical Twilight Sun does not rise Sun does not rise
Moon 2:02 AM AKDT (8/21) 7:59 PM AKDT (8/21)
Length of Visible Light 17h 49m
Length of Day
15h 48m
Waning Crescent, 12% of the Moon is Illuminated
Aug 21
Waning Crescent
Aug 25
New
Sep 2
First Quarter
Sep 8
Full
Sep 15
Last Quarter

Hourly Weather History & Observations

Time (AKDT) Temp. Dew Point Humidity Pressure Visibility Wind Dir Wind Speed Gust Speed Precip Events Conditions
12:53 AM 54.0 °F 51.1 °F 90% 30.16 in 10.0 mi Calm Calm - N/A   Overcast
1:53 AM 51.1 °F 48.9 °F 92% 30.17 in 10.0 mi Calm Calm - N/A   Overcast
2:53 AM 51.1 °F 48.9 °F 92% 30.19 in 10.0 mi Calm Calm - N/A   Overcast
3:49 AM 48.2 °F 46.4 °F 93% 30.18 in 1.8 mi Calm Calm - N/A   Partly Cloudy
3:53 AM 48.0 °F 46.0 °F 93% 30.19 in 1.0 mi Calm Calm - N/A   Partly Cloudy
4:00 AM 48.0 °F 46.0 °F 93% 30.18 in 0.8 mi Calm Calm - N/A   Clear
4:08 AM 46.9 °F 45.0 °F 93% 30.18 in 0.5 mi Calm Calm - N/A Fog Fog
4:53 AM 45.0 °F 43.0 °F 93% 30.21 in 0.5 mi Calm Calm - N/A Fog Fog
5:03 AM 46.0 °F 44.1 °F 93% 30.19 in 1.2 mi Calm Calm - N/A   Partly Cloudy
5:08 AM 46.0 °F 44.1 °F 93% 30.19 in 3.0 mi Calm Calm - N/A   Partly Cloudy
5:18 AM 43.0 °F 42.1 °F 97% 30.19 in 1.8 mi Calm Calm - N/A   Partly Cloudy
5:21 AM 44.1 °F 42.1 °F 93% 30.19 in 0.8 mi Calm Calm - N/A   Mist
5:35 AM 44.1 °F 42.1 °F 93% 30.19 in 1.2 mi Calm Calm - N/A   Partly Cloudy
5:40 AM 45.0 °F 43.0 °F 93% 30.19 in 3.0 mi Calm Calm - N/A   Partly Cloudy
5:53 AM 43.0 °F 41.0 °F 93% 30.22 in 2.0 mi Calm Calm - N/A   Partly Cloudy
5:55 AM 43.0 °F 41.0 °F 93% 30.19 in 0.8 mi Calm Calm - N/A   Mist
6:53 AM 42.1 °F 41.0 °F 96% 30.23 in 0.2 mi Calm Calm - N/A Fog Fog
7:15 AM 46.0 °F 44.1 °F 93% 30.20 in 1.2 mi Calm Calm - N/A   Scattered Clouds
7:23 AM 45.0 °F 45.0 °F 100% 30.20 in 9.0 mi Calm Calm - N/A   Scattered Clouds
7:53 AM 46.9 °F 46.0 °F 97% 30.22 in 10.0 mi Calm Calm - N/A   Clear
8:53 AM 51.1 °F 48.0 °F 89% 30.23 in 10.0 mi Calm Calm - N/A   Clear
9:53 AM 55.0 °F 48.0 °F 77% 30.23 in 10.0 mi Calm Calm - N/A   Clear
10:53 AM 57.9 °F 48.0 °F 70% 30.23 in 10.0 mi Calm Calm - N/A   Clear
11:53 AM 60.1 °F 48.0 °F 64% 30.23 in 10.0 mi WNW 4.6 mph - N/A   Clear
12:53 PM 62.1 °F 46.0 °F 56% 30.23 in 10.0 mi North - - N/A   Clear
1:53 PM 61.0 °F 44.1 °F 54% 30.23 in 10.0 mi NNW 3.5 mph - N/A   Mostly Cloudy
2:53 PM 64.0 °F 44.1 °F 48% 30.22 in 10.0 mi Variable 6.9 mph - N/A   Overcast
3:53 PM 64.0 °F 42.1 °F 45% 30.22 in 10.0 mi WNW 3.5 mph - N/A   Partly Cloudy
4:53 PM 64.0 °F 41.0 °F 43% 30.21 in 10.0 mi NNW 5.8 mph - N/A   Clear
5:53 PM 64.9 °F 42.1 °F 43% 30.20 in 10.0 mi NW 3.5 mph - N/A   Clear
7:53 PM 62.1 °F 43.0 °F 50% 30.19 in 10.0 mi NE 3.5 mph - N/A   Clear
8:53 PM 57.9 °F 46.0 °F 65% 30.19 in 10.0 mi ENE 3.5 mph - N/A   Clear
9:53 PM 54.0 °F 46.9 °F 77% 30.20 in 10.0 mi Calm Calm - N/A   Clear
10:53 PM 48.0 °F 45.0 °F 89% 30.21 in 10.0 mi Calm Calm - N/A   Clear
11:53 PM 46.9 °F 44.1 °F 90% 30.20 in 10.0 mi Calm Calm - N/A   Clear